{"data":{"norad_id":49197,"intl_designator":"2021-083M","name":"ONEWEB-0328","alt_names":[],"object_type":"PAYLOAD","status":"ACTIVE","operator":null,"country":"UK","launch_date":"2021-09-14","launch_site_code":"TYMSC","launch_vehicle":null,"mission":null,"orbit_class":"UNKNOWN","rcs_meters":null,"size_class":null,"mass_kg":null,"dimensions":null,"purposes":["comms"],"wikipedia_slug":null,"has_3d_model":false,"image_url":null,"decayed_at":null,"tle_current":{"epoch":"2026-05-25T01:31:19.437024Z","epoch_age_seconds":76546,"freshness":"FRESH","line1":"1 49197U 21083M   26145.06341941 -.00000290  00000+0 -82840-3 0  9997","line2":"2 49197  87.8949 324.8142 0001769  96.4188 263.7142 13.13468395227863","mean_motion":13.13468395,"eccentricity":0.0001769,"inclination_deg":87.8949,"raan_deg":324.8142,"arg_perigee_deg":96.4188,"mean_anomaly_deg":263.7142,"bstar":-0.0008284,"rev_number":22786,"period_min":109.63339548037,"perigee_km":1208.4292802573,"apogee_km":1211.1138823134,"semimajor_km":7587.9085812853,"source":"CELESTRAK","updated_at":"2026-05-25T13:38:22.491160Z"}}}